Weather History for KMWK - October, 2013

Change the Weather History Date:

Tuesday, October 15, 2013

  Actual Average (KINT) Record (KINT)
Temperature  
Mean Temperature 63 °F -  
Max Temperature 71 °F 68 °F 88 °F (1989)
Min Temperature 55 °F 48 °F 27 °F (1988)
Degree Days  
Heating Degree Days 2    
Growing Degree Days 13 (Base 50)    
Moisture  
Dew Point 54 °F    
Average Humidity 76    
Maximum Humidity 91    
Minimum Humidity 50    
Precipitation  
Precipitation 0.00 in - - ()
Sea Level Pressure  
Sea Level Pressure 30.16 in    
Wind  
Wind Speed 1 mph (ENE)    
Max Wind Speed 8 mph    
Max Gust Speed -    
Visibility 10 miles    
Events      
Averages and records for this station are not official NWS values.
T = Trace of Precipitation, MM = Missing Value Source: NWS Daily Summary

Daily Weather History Graph

Daily Weather History Graph

Search for Another Location

Airport or City:

Trip Planner

Search our weather history database for the weather conditions in past years. The results will help you decide how hot, cold, wet, or windy it might be!

Date:

Astronomy

Oct. 15, 2013 Rise Set
Actual Time 7:29 AM EDT 6:45 PM EDT
Civil Twilight 7:03 AM EDT 7:11 PM EDT
Nautical Twilight 6:33 AM EDT 7:41 PM EDT
Astronomical Twilight 6:03 AM EDT 8:11 PM EDT
Moon 4:45 PM EDT (10/15) 3:56 AM EDT (10/15)
Length of Visible Light 12h 07m
Length of Day
11h 16m
Waxing Gibbous, 87% of the Moon is Illuminated
Oct 15
Waxing Gibbous
Oct 18
Full
Oct 26
Last Quarter
Nov 3
New
Nov 10
First Quarter

Hourly Weather History & Observations

Time (EDT) Temp. Dew Point Humidity Pressure Visibility Wind Dir Wind Speed Gust Speed Precip Events Conditions
12:15 AM 58.1 °F 55.0 °F 90% 30.24 in 10.0 mi Calm Calm - N/A   Scattered Clouds
12:35 AM 57.2 °F 54.5 °F 91% 30.24 in 10.0 mi Calm Calm - N/A   Scattered Clouds
12:55 AM 57.2 °F 54.5 °F 91% 30.24 in 10.0 mi Calm Calm - N/A   Mostly Cloudy
1:15 AM 57.4 °F 54.7 °F 91% 30.24 in 10.0 mi Calm Calm - N/A   Overcast
1:35 AM 57.6 °F 54.9 °F 91% 30.22 in 10.0 mi Calm Calm - N/A   Overcast
1:55 AM 57.6 °F 54.7 °F 90% 30.22 in 10.0 mi Calm Calm - N/A   Overcast
2:15 AM 57.6 °F 54.9 °F 91% 30.22 in 10.0 mi Calm Calm - N/A   Overcast
2:35 AM 57.4 °F 54.9 °F 91% 30.22 in 10.0 mi Calm Calm - N/A   Overcast
2:55 AM 57.4 °F 54.9 °F 91% 30.21 in 10.0 mi Calm Calm - N/A   Overcast
3:15 AM 57.6 °F 54.9 °F 91% 30.21 in 10.0 mi Calm Calm - N/A   Overcast
3:35 AM 57.7 °F 55.0 °F 91% 30.21 in 10.0 mi Calm Calm - N/A   Overcast
3:55 AM 57.7 °F 55.0 °F 91% 30.20 in 10.0 mi Calm Calm - N/A   Overcast
4:15 AM 57.7 °F 54.7 °F 90% 30.20 in 10.0 mi Calm Calm - N/A   Overcast
4:35 AM 57.9 °F 54.5 °F 88% 30.19 in 10.0 mi Calm Calm - N/A   Overcast
4:55 AM 58.1 °F 54.5 °F 88% 30.19 in 10.0 mi Calm Calm - N/A   Overcast
5:15 AM 58.5 °F 54.1 °F 86% 30.19 in 10.0 mi Calm Calm - N/A   Overcast
5:35 AM 58.5 °F 54.0 °F 85% 30.19 in 10.0 mi Calm Calm - N/A   Overcast
5:55 AM 57.4 °F 53.8 °F 88% 30.19 in 10.0 mi Calm Calm - N/A   Overcast
6:15 AM 57.2 °F 53.8 °F 88% 30.20 in 10.0 mi Calm Calm - N/A   Overcast
6:35 AM 57.2 °F 54.5 °F 91% 30.20 in 10.0 mi Calm Calm - N/A   Overcast
6:55 AM 57.2 °F 54.5 °F 91% 30.20 in 10.0 mi Calm Calm - N/A   Overcast
7:15 AM 57.2 °F 54.1 °F 89% 30.20 in 10.0 mi Calm Calm - N/A   Overcast
7:35 AM 57.2 °F 54.1 °F 89% 30.20 in 10.0 mi Calm Calm - N/A   Overcast
7:55 AM 57.4 °F 54.0 °F 88% 30.20 in 10.0 mi Calm Calm - N/A   Overcast
8:15 AM 57.2 °F 54.0 °F 89% 30.20 in 10.0 mi Calm Calm - N/A   Scattered Clouds
8:35 AM 57.6 °F 54.0 °F 88% 30.21 in 10.0 mi Calm Calm - N/A   Scattered Clouds
8:55 AM 59.4 °F 54.9 °F 85% 30.21 in 10.0 mi Calm Calm - N/A   Clear
9:15 AM 60.8 °F 54.7 °F 80% 30.20 in 10.0 mi Calm Calm - N/A   Clear
9:35 AM 61.7 °F 54.9 °F 78% 30.21 in 10.0 mi NE 5.8 mph - N/A   Clear
9:55 AM 63.5 °F 55.4 °F 75% 30.21 in 10.0 mi NE 6.9 mph - N/A   Clear
10:15 AM 64.0 °F 55.2 °F 73% 30.21 in 10.0 mi ENE 5.8 mph - N/A   Clear
10:35 AM 65.7 °F 55.8 °F 70% 30.20 in 10.0 mi ENE 3.5 mph - N/A   Clear
10:55 AM 65.7 °F 54.5 °F 67% 30.20 in 10.0 mi ENE 8.1 mph - N/A   Clear
11:15 AM 67.6 °F 55.6 °F 65% 30.19 in 10.0 mi East 6.9 mph - N/A   Clear
11:35 AM 65.5 °F 53.8 °F 66% 30.18 in 10.0 mi East 6.9 mph - N/A   Clear
11:55 AM 66.2 °F 53.8 °F 64% 30.18 in 10.0 mi East 6.9 mph - N/A   Clear
12:15 PM 67.3 °F 53.8 °F 62% 30.18 in 10.0 mi ENE 4.6 mph - N/A   Clear
12:35 PM 68.5 °F 53.2 °F 58% 30.17 in 10.0 mi ENE 4.6 mph - N/A   Clear
12:55 PM 70.0 °F 54.7 °F 58% 30.17 in 10.0 mi Calm Calm - N/A   Clear
1:15 PM 69.1 °F 52.9 °F 56% 30.17 in 10.0 mi Calm Calm - N/A   Clear
1:35 PM 70.5 °F 51.3 °F 50% 30.15 in 10.0 mi NNE 5.8 mph - N/A   Clear
1:55 PM 68.9 °F 51.4 °F 54% 30.14 in 10.0 mi SE 4.6 mph - N/A   Clear
2:15 PM 70.2 °F 50.9 °F 50% 30.13 in 10.0 mi ENE 4.6 mph - N/A   Clear
2:35 PM 70.0 °F 52.2 °F 53% 30.11 in 10.0 mi NNE 3.5 mph - N/A   Clear
2:55 PM 70.9 °F 51.3 °F 50% 30.11 in 10.0 mi ESE 5.8 mph - N/A   Clear
3:15 PM 71.4 °F 52.3 °F 51% 30.11 in 10.0 mi East 6.9 mph - N/A   Clear
3:35 PM 71.6 °F 51.8 °F 50% 30.11 in 10.0 mi Calm Calm - N/A   Clear
3:55 PM 71.2 °F 52.7 °F 52% 30.11 in 10.0 mi Calm Calm - N/A   Clear
4:15 PM 71.1 °F 53.2 °F 53% 30.10 in 10.0 mi ENE 3.5 mph - N/A   Clear
4:35 PM 71.1 °F 53.6 °F 54% 30.10 in 10.0 mi NE 4.6 mph - N/A   Clear
4:55 PM 70.7 °F 52.7 °F 53% 30.10 in 10.0 mi Calm Calm - N/A   Clear
5:15 PM 69.8 °F 52.9 °F 55% 30.09 in 10.0 mi East 3.5 mph - N/A   Clear
5:35 PM 69.1 °F 54.0 °F 58% 30.10 in 10.0 mi East 3.5 mph - N/A   Clear
5:55 PM 68.2 °F 54.3 °F 61% 30.10 in 10.0 mi East 3.5 mph - N/A   Clear
6:15 PM 67.3 °F 54.0 °F 62% 30.10 in 10.0 mi Calm Calm - N/A   Clear
6:35 PM 66.0 °F 54.1 °F 65% 30.10 in 10.0 mi Calm Calm - N/A   Clear
6:55 PM 64.4 °F 55.4 °F 73% 30.10 in 10.0 mi Calm Calm - N/A   Clear
7:15 PM 63.3 °F 56.1 °F 77% 30.10 in 10.0 mi Calm Calm - N/A   Clear
7:35 PM 63.3 °F 55.6 °F 76% 30.11 in 10.0 mi Calm Calm - N/A   Clear
7:55 PM 61.7 °F 56.1 °F 82% 30.11 in 10.0 mi Calm Calm - N/A   Clear
8:15 PM 61.2 °F 55.6 °F 82% 30.11 in 10.0 mi Calm Calm - N/A   Clear
8:55 PM 60.8 °F 54.0 °F 78% 30.11 in 10.0 mi Calm Calm - N/A   Clear
9:15 PM 60.1 °F 54.3 °F 81% 30.11 in 10.0 mi Calm Calm - N/A   Clear
9:35 PM 58.5 °F 53.8 °F 84% 30.11 in 10.0 mi Calm Calm - N/A   Clear
9:55 PM 57.9 °F 53.6 °F 86% 30.12 in 10.0 mi Calm Calm - N/A   Clear
10:15 PM 57.0 °F 53.2 °F 87% 30.12 in 10.0 mi Calm Calm - N/A   Clear
10:35 PM 56.8 °F 53.4 °F 88% 30.11 in 10.0 mi Calm Calm - N/A   Clear
10:55 PM 56.8 °F 52.9 °F 87% 30.12 in 10.0 mi Calm Calm - N/A   Clear
11:15 PM 57.2 °F 52.7 °F 85% 30.12 in 10.0 mi Calm Calm - N/A   Clear
11:35 PM 55.8 °F 52.5 °F 89% 30.12 in 10.0 mi Calm Calm - N/A   Clear
11:55 PM 55.9 °F 52.2 °F 87% 30.11 in 10.0 mi Calm Calm - N/A   Clear